Campo, CA

11:03 PM PDT on October 22, 2019 (GMT -0700)
Campo

Weather History for KCZZ - August, 2019

Change the Weather History Date:

Tuesday, August 6, 2019

  Actual Average Record
Temperature  
Mean Temperature 84 °F 74 °F  
Max Temperature 101 °F 95 °F 105 °F (1997)
Min Temperature 67 °F 54 °F 38 °F (1999)
Degree Days  
Heating Degree Days 0 0  
Month to date heating degree days 0 0  
Since 1 June heating degree days 42 63  
Since 1 July heating degree days 6 7  
Cooling Degree Days 19 9  
Month to date cooling degree days 87 54  
Year to date cooling degree days 415 426  
Since 1 June cooling degree days 413 396  
Growing Degree Days 34 (Base 50)    
Moisture  
Dew Point 52 °F    
Average Humidity 37    
Maximum Humidity 57    
Minimum Humidity 17    
Precipitation  
Precipitation 0.00 in 0.02 in 0.61 in (1987)
Month to date precipitation 0.00 0.12  
Year to date precipitation 12.82 10.59  
Sea Level Pressure  
Sea Level Pressure 29.84 in    
Wind  
Wind Speed 6 mph (SW)    
Max Wind Speed 22 mph    
Max Gust Speed 26 mph    
T = Trace of Precipitation, MM = Missing Value Source: NWS Daily Summary

Daily Weather History Graph

Daily Weather History Graph

Search for Another Location

Airport or City:

Astronomy

Aug. 06, 2019 Rise Set
Actual Time 6:03 AM PDT 7:39 PM PDT
Civil Twilight 5:36 AM PDT 8:06 PM PDT
Nautical Twilight 5:04 AM PDT 8:38 PM PDT
Astronomical Twilight 4:31 AM PDT 9:11 PM PDT
Moon 12:12 PM PDT (8/6) 11:49 PM PDT (8/6)
Length of Visible Light 14h 29m
Length of Day
13h 36m
Waxing Crescent, 40% of the Moon is Illuminated
Aug 6
Waxing Crescent
Aug 7
First Quarter
Aug 15
Full
Aug 23
Last Quarter
Aug 30
New

Hourly Weather History & Observations

Time (PDT) Temp. Heat Index Dew Point Humidity Pressure Visibility Wind Dir Wind Speed Gust Speed Precip Events Conditions
12:52 AM 70.0 °F - 54.0 °F 57% 29.84 in - Calm Calm - N/A   Unknown
1:52 AM 69.1 °F - 52.0 °F 54% 29.84 in - WNW 3.5 mph - N/A   Unknown
2:52 AM 71.1 °F - 50.0 °F 47% 29.82 in - NNE 3.5 mph - N/A   Unknown
3:52 AM 70.0 °F - 50.0 °F 49% 29.83 in - Calm Calm - N/A   Unknown
4:52 AM 71.1 °F - 50.0 °F 47% 29.83 in - ENE 4.6 mph - N/A   Unknown
5:52 AM 72.0 °F - 48.0 °F 43% 29.85 in - NNE 3.5 mph - N/A   Unknown
6:52 AM 77.0 °F - 42.1 °F 29% 29.86 in - NE 3.5 mph - N/A   Unknown
7:52 AM 80.1 °F - 45.0 °F 29% 29.86 in - Calm Calm - N/A   Unknown
8:52 AM 82.9 °F - 51.1 °F 33% 29.87 in - SW 3.5 mph - N/A   Unknown
9:52 AM 95.0 °F - 50.0 °F 22% 29.84 in - Variable 3.5 mph - N/A   Unknown
10:52 AM 99.0 °F - 48.0 °F 18% 29.83 in - SE 8.1 mph - N/A   Unknown
11:52 AM 100.0 °F - 48.0 °F 17% 29.81 in - SW 11.5 mph - N/A   Unknown
12:08 PM 98.1 °F - 51.1 °F 20% 29.94 in - SW 11.5 mph - N/A   Unknown
12:52 PM 98.1 °F - 50.0 °F 20% 29.81 in - SSW 10.4 mph 19.6 mph N/A   Unknown
1:52 PM 98.1 °F - 52.0 °F 21% 29.81 in - SW 10.4 mph 17.3 mph N/A   Unknown
2:52 PM 97.0 °F 95.3 °F 55.9 °F 25% 29.79 in - SW 18.4 mph - N/A   Unknown
3:52 PM 93.9 °F 92.6 °F 57.0 °F 29% 29.78 in - SSW 17.3 mph - N/A   Unknown
4:52 PM 91.0 °F 89.7 °F 57.0 °F 32% 29.80 in - SW 12.7 mph - N/A   Unknown
5:52 PM 87.1 °F 85.9 °F 57.0 °F 36% 29.80 in - SW 13.8 mph - N/A   Unknown
6:52 PM 81.0 °F 81.1 °F 57.9 °F 45% 29.81 in - SW 16.1 mph - N/A   Unknown
7:52 PM 75.9 °F - 57.9 °F 54% 29.85 in - SSW 5.8 mph - N/A   Unknown
8:52 PM 75.0 °F - 57.9 °F 55% 29.86 in - Calm Calm - N/A   Unknown
9:52 PM 72.0 °F - 55.9 °F 57% 29.87 in - Calm Calm - N/A   Unknown
10:52 PM 72.0 °F - 55.9 °F 57% 29.86 in - Calm Calm - N/A   Unknown
11:52 PM 73.0 °F - 55.9 °F 55% 29.85 in - Calm Calm - N/A   Unknown